This is the latest recevied weather packets stored in our database for station/object WD7CGF. If no packets are shown the sender has not sent any weather packets the latest 10 day(s).
| Time | Temp. | Humidity | Pressure | Rain* | Wind** | Luminosity | Snow |
|---|---|---|---|---|---|---|---|
| 1777861115 | 25.56° C | 32% | 1007.3 hPa | 0 mm | - | - | - |
| 1777860508 | 26.11° C | 32% | 1007 hPa | 0 mm | - | - | - |
| 1777859924 | 26.11° C | 32% | 1007 hPa | 0 mm | - | - | - |
| 1777859310 | 26.67° C | 32% | 1007 hPa | 0 mm | - | - | - |
| 1777858722 | 26.67° C | 31% | 1006.9 hPa | 0 mm | - | - | - |
| 1777858114 | 27.22° C | 31% | 1007 hPa | 0 mm | - | - | - |
| 1777857506 | 27.22° C | 28% | 1007 hPa | 0 mm | - | - | - |
| 1777856921 | 27.22° C | 28% | 1007.5 hPa | 0 mm | - | - | - |
| 1777856313 | 27.22° C | 30% | 1007.7 hPa | 0 mm | - | - | - |
| 1777855727 | 27.22° C | 29% | 1007.7 hPa | 0 mm | - | - | - |
| 1777855122 | 27.78° C | 28% | 1007.9 hPa | 0 mm | - | - | - |
| 1777854511 | 27.78° C | 28% | 1007.9 hPa | 0 mm | - | - | - |
| 1777853919 | 27.78° C | 30% | 1007.9 hPa | 0 mm | - | - | - |
| 1777853329 | 27.78° C | 26% | 1008.2 hPa | 0 mm | - | - | - |
| 1777852714 | 27.78° C | 28% | 1008.3 hPa | 0 mm | - | - | - |
| 1777852125 | 28.33° C | 27% | 1008.3 hPa | 0 mm | - | - | - |
| 1777851514 | 28.33° C | 26% | 1008.3 hPa | 0 mm | - | - | - |
| 1777850927 | 28.33° C | 27% | 1008.7 hPa | 0 mm | - | - | - |
| 1777850316 | 28.33° C | 26% | 1008.7 hPa | 0 mm | - | - | - |
| 1777849713 | 28.33° C | 29% | 1008.8 hPa | 0 mm | - | - | - |
| 1777849123 | 28.89° C | 26% | 1009 hPa | 0 mm | - | - | - |
| 1777848514 | 28.89° C | 28% | 1009 hPa | 0 mm | - | - | - |
| 1777847927 | 28.89° C | 27% | 1009.3 hPa | 0 mm | - | - | - |
| 1777847317 | 28.89° C | 29% | 1009.5 hPa | 0 mm | - | - | - |
| 1777846727 | 28.89° C | 28% | 1009.5 hPa | 0 mm | - | - | - |
* Rain latest hour (hover to see other rain measurements)
** Current wind speed in m/s (hover to see current wind gust speed)